RH
47 44 46 38 43 34 36 45 42 39 34 43 43 43 36 36 39 40 46 45 42 45 40 45 59 66 79 81 76 73 75 82 79 86 87 93 94 93 90 80 63 61 68 68
57 54 35 38 45 47 47 49 46 42 40 40 43 43 39 37 49 74 77 86 87 87 82 61 60 77 79 79 76 76 75 79 77 76 87 85 90 90 85 78 66 63 66 69
59 45 47 44 49 47 48 51 51 44 45 47 53 50 46 43 58 61 70 79 82 84 87 88 80 81 87 87 81 78 77 78 78 82 83 87 82 81 80 76 71 67 66 70
56 44 43 56 53 49 59 46 43 50 56 64 56 61 52 43 60 70 81 84 86 85 81 80 83 96 94 94 89 86 85 81 85 79 78 80 82 83 82 78 74 70 68 70
50 54 56 58 50 48 49 46 50 55 62 67 68 62 56 68 69 85 87 84 79 77 76 78 79 78 86 96 97 94 92 90 88 83 80 80 84 82 82 77 69 72 72 71
52 49 47 46 46 47 47 50 58 75 66 74 57 56 65 90 90 82 80 76 73 72 72 72 71 71 78 80 85 95 94 93 90 87 85 82 81 82 81 80 76 78 78 78
56 52 51 48 54 50 50 59 76 75 87 75 66 62 90 85 81 82 82 77 74 72 73 75 77 78 77 82 84 80 88 95 92 90 88 85 82 81 79 83 83 80 82 82
78 72 55 50 49 54 60 57 75 75 74 67 66 71 90 77 69 69 68 71 68 73 73 75 77 79 79 79 82 84 85 87 86 89 88 82 80 85 84 82 86 84 82 86
93 78 62 54 51 46 63 67 52 59 66 79 66 93 67 60 64 66 70 69 74 75 77 77 75 78 80 82 85 88 88 86 86 88 88 91 88 83 80 83 83 83 82 75
94 95 72 52 49 55 53 53 68 73 84 83 74 84 79 75 75 67 76 79 76 74 75 76 78 81 80 82 82 84 84 86 86 86 88 88 88 87 88 82 78 82 82 76
87 90 78 67 71 66 68 74 81 68 66 79 80 80 74 80 79 80 78 76 82 80 82 81 79 79 81 80 83 83 85 88 87 86 85 88 90 89 86 86 82 75 73 78
80 88 93 82 63 76 84 91 91 93 82 90 94 92 78 79 77 73 80 74 75 77 82 82 82 77 76 81 85 90 89 88 91 91 88 89 87 88 93 96 94 86 81 71
61 72 81 24 74 59 85 86 87 87 94 96 95 89 84 87 87 86 87 81 80 76 81 86 86 89 91 89 88 90 92 93 92 91 92 92 92 92 94 95 96 98 97 97
54 92 76 63 85 77 86 90 82 96 99 88 89 95 86 88 90 88 87 90 94 94 94 93 92 94 93 94 94 94 92 94 94 94 94 94 95 96 96 96 95 95 96 98
67 80 83 66 52 49 95 92 83 94 99 98 99 96 96 95 95 96 95 93 92 94 93 93 93 93 94 93 94 93 94 95 95 95 95 96 96 96 95 95 96 96 96 96
67 88 70 80 54 59 94 89 81 76 89 98 99 100 96 94 89 93 95 94 93 91 89 88 86 86 88 87 88 90 88 93 92 92 95 94 94 95 95 95 95 95 95 96
74 91 91 93 66 68 92 98 81 85 86 92 90 100 90 83 81 87 93 93 90 89 90 88 87 87 87 87 86 88 88 89 89 85 87 91 88 86 86 89 90 92 94 94
75 89 90 100 87 99 99 96 90 91 95 93 89 93 96 94 86 85 94 91 89 88 88 88 87 87 85 84 84 85 85 86 89 82 84 86 84 80 75 75 78 89 89 90
65 89 98 98 100 90 93 96 98 97 94 100 100 95 94 93 88 96 92 83 86 90 90 90 88 88 86 85 83 87 86 82 84 80 78 69 72 72 64 64 66 69 75 77
46 60 91 97 98 99 94 96 96 92 96 96 100 100 100 97 96 88 88 80 86 87 88 91 84 88 88 82 86 89 78 78 80 65 62 55 56 58 60 61 63 69 70 53
78 85 98 99 100 94 91 92 96 95 94 94 99 96 100 100 94 85 84 85 85 91 90 85 88 90 86 86 86 75 67 70 55 48 48 49 50 53 53 57 59 60 58 52
98 99 100 99 100 96 94 91 93 91 95 100 100 100 100 92 89 87 86 87 86 87 81 82 85 81 81 84 75 68 70 51 48 52 51 50 53 52 42 50 54 54 64 68
95 98 99 96 97 97 94 94 94 96 96 98 100 98 99 98 92 90 91 91 82 79 77 72 77 74 75 65 61 62 56 53 54 56 56 57 55 49 48 53 59 63 77 87
96 95 98 93 95 93 94 97 99 100 100 97 100 98 96 97 94 92 85 80 80 77 75 68 73 83 64 58 53 60 57 55 60 64 64 62 64 65 68 58 61 71 94 95
96 86 97 90 90 83 89 98 100 98 97 100 93 95 95 93 87 87 87 85 82 78 67 79 65 62 62 61 63 62 56 62 66 68 70 75 68 75 76 71 77 77 78 81
98 97 95 92 90 93 91 91 96 100 96 91 93 91 84 84 90 87 87 80 75 77 72 64 65 65 68 68 67 63 61 63 74 79 70 75 74 80 79 89 91 80 72 69
Wind_Speed
0 3 11 15 10 4 2 3 5 4 3 3 8 10 13 9 6 9 14 18 17 12 9 9 9 11 10 10 13 15 15 12 10 5 5 3 4 2 1 3 5 5 5 5
3 8 11 4 7 7 6 6 9 9 5 6 8 12 11 7 10 14 18 20 22 23 22 18 7 7 13 13 12 13 14 14 11 8 4 4 4 2 2 2 3 5 6 6
7 7 4 7 4 6 9 8 5 9 6 4 4 9 4 8 14 16 20 18 21 24 25 25 20 5 1 5 11 13 13 14 11 9 6 4 5 4 2 1 2 3 5 5
6 7 7 4 5 9 6 11 12 7 0 4 1 7 5 3 9 19 21 22 22 24 24 23 25 18 11 6 5 3 5 9 7 10 7 7 5 4 3 3 2 3 4 5
7 2 3 4 9 9 9 6 7 4 5 1 4 1 6 6 8 20 19 22 22 22 22 24 24 21 22 16 8 5 6 6 7 7 8 6 4 3 3 3 5 3 2 3
8 3 3 8 4 7 1 3 5 4 3 4 8 8 4 5 7 14 18 19 22 22 23 23 22 23 23 21 18 11 7 3 6 6 7 8 9 7 4 4 4 3 2 2
5 4 4 2 2 2 3 5 4 3 1 9 3 5 5 5 11 13 15 18 20 20 21 23 25 24 23 23 22 17 17 10 7 1 6 7 7 7 8 6 5 5 3 3
2 7 0 3 4 4 5 8 6 5 4 5 4 6 4 9 11 13 14 15 18 20 19 21 22 21 21 22 22 21 20 17 15 12 7 5 4 4 4 5 4 4 5 4
5 6 6 3 2 5 1 4 4 5 4 1 5 3 4 7 12 15 17 18 20 19 19 20 20 19 19 20 22 21 20 18 18 16 13 11 6 5 4 5 5 4 4 4
3 8 5 6 4 1 4 2 2 1 4 9 5 4 4 9 14 15 17 18 18 18 19 18 18 18 17 17 18 19 19 18 17 15 14 12 12 11 8 3 5 5 4 6
4 3 4 8 3 4 7 4 5 3 5 9 12 2 7 10 11 13 14 15 15 16 16 15 15 16 16 17 17 17 18 18 17 16 15 14 13 12 11 10 9 6 3 4
2 2 6 7 5 13 8 6 6 3 6 5 5 3 7 7 7 9 10 13 14 15 15 15 15 15 16 17 16 16 16 16 15 14 14 14 13 13 12 11 10 10 9 7
4 3 6 7 3 9 7 7 4 4 5 3 5 2 7 9 7 9 10 12 12 15 15 14 14 15 15 15 14 15 15 15 14 14 13 13 14 13 13 12 12 9 9 8
5 3 7 7 3 0 3 5 4 1 3 6 5 3 10 11 11 9 10 10 8 10 13 13 14 13 14 14 14 14 14 13 13 13 12 13 13 12 11 11 11 11 11 9
4 3 2 4 8 3 3 3 6 4 3 6 3 4 5 9 11 5 7 10 11 12 12 13 13 13 12 14 13 13 13 12 13 11 11 12 11 10 10 10 10 10 10 10
5 4 4 6 2 4 6 6 6 6 3 3 4 2 3 7 9 7 7 10 11 11 12 12 12 12 12 12 12 12 12 11 10 10 9 9 9 9 10 10 10 9 10 9
3 2 3 5 5 6 1 3 4 3 3 3 1 1 7 8 11 10 7 9 11 12 11 12 12 11 10 9 10 11 11 10 10 9 8 7 7 7 8 7 8 8 9 8
3 1 3 4 0 3 1 3 3 5 3 4 3 5 5 8 14 13 5 4 11 13 13 13 11 11 11 9 8 9 9 8 7 7 7 8 9 9 8 8 7 5 4 6
7 2 1 3 1 3 4 2 2 4 4 1 4 6 6 9 10 4 3 6 9 11 11 11 11 11 10 10 10 9 9 8 7 7 7 8 8 8 8 9 8 7 6 4
5 6 3 3 3 4 4 2 2 3 4 3 2 5 4 6 4 5 5 13 12 11 10 11 13 10 9 10 10 8 10 9 7 10 10 10 10 9 9 8 6 4 5 6
5 5 4 2 1 5 4 4 1 3 3 4 3 6 3 3 5 12 15 14 10 8 10 11 8 9 10 9 7 10 8 6 8 10 9 10 9 9 9 7 5 5 6 6
3 3 1 3 4 5 2 2 3 4 3 4 3 4 5 10 13 13 13 12 12 12 12 10 9 9 9 7 8 10 8 10 12 9 10 10 9 8 8 8 6 6 5 6
2 0 1 4 3 1 2 4 2 4 3 4 2 6 7 10 11 12 12 12 11 12 11 10 9 10 8 8 7 8 11 12 10 10 12 11 10 10 10 9 6 4 4 4
4 3 1 4 2 4 4 3 0 1 3 5 6 7 7 10 11 12 12 11 11 11 12 11 11 7 11 8 10 10 12 11 11 11 10 9 9 11 5 6 6 6 3 3
3 5 4 5 3 7 4 3 3 5 5 4 7 7 8 11 12 11 11 11 11 11 12 10 12 12 12 11 11 11 13 10 10 10 9 9 8 8 8 8 6 7 6 8
2 2 1 5 5 5 8 6 4 4 7 9 11 13 10 10 12 12 11 10 11 12 11 11 12 12 13 12 12 12 11 10 10 10 9 8 8 7 7 6 7 14 19 20
Wind_Direction
52 127 214 207 202 211 159 212 254 254 253 277 232 253 268 281 306 295 0 353 345 316 309 255 216 196 173 170 172 176 171 168 158 149 148 143 171 164 174 190 179 177 176 171
51 237 238 186 208 230 261 282 276 288 247 180 282 271 266 258 52 50 22 14 4 357 360 342 280 184 183 179 176 174 177 168 169 164 132 138 139 138 143 164 188 190 182 178
180 230 81 177 185 204 232 228 235 239 316 256 282 292 328 77 69 37 27 17 13 9 1 359 358 341 8 184 181 175 171 168 166 145 119 77 79 61 81 213 200 213 190 183
235 262 255 165 229 184 262 206 235 247 114 255 136 285 303 73 71 30 17 20 11 6 4 5 7 13 12 21 49 99 141 157 140 146 144 151 160 154 190 168 172 184 194 198
249 276 184 185 222 156 238 177 205 212 193 322 218 207 252 12 15 8 18 17 11 7 6 7 9 12 15 15 18 49 95 115 130 146 153 148 138 132 139 140 156 173 199 208
242 295 264 213 208 176 166 122 51 56 99 256 194 164 268 16 350 359 15 14 9 6 6 10 11 13 15 16 18 16 22 62 131 143 153 163 162 156 146 161 180 189 199 221
324 246 282 171 245 235 121 74 310 311 97 232 351 177 59 65 41 31 19 15 11 9 10 10 12 11 11 15 15 18 17 18 356 256 170 176 181 172 179 178 179 176 185 217
345 329 308 330 189 219 187 170 180 245 226 268 88 232 101 69 54 36 30 20 16 13 11 12 11 11 8 12 15 15 19 17 15 12 342 319 194 184 188 184 182 198 201 197
356 271 319 300 266 151 141 173 222 260 241 294 200 104 150 71 33 28 20 18 17 12 10 9 10 12 8 10 14 11 12 14 19 18 13 18 13 336 287 214 190 197 194 197
42 290 272 314 347 45 173 236 278 348 274 253 250 169 88 11 9 12 15 14 11 11 9 7 10 9 8 11 11 13 12 13 9 13 21 22 21 21 10 1 293 261 221 194
15 224 292 12 312 19 347 355 355 288 238 263 269 173 34 36 20 11 12 13 9 8 7 4 5 6 6 9 11 10 11 10 10 10 11 13 16 22 29 31 14 344 267 237
303 261 279 226 327 72 57 45 27 327 313 282 283 88 35 61 48 34 14 6 5 9 7 3 3 4 9 8 6 7 5 8 6 6 12 16 15 14 19 21 17 14 21 16
330 314 328 332 67 45 39 48 23 284 248 255 312 61 38 19 34 31 16 10 4 2 1 359 0 5 1 3 3 3 2 360 1 4 9 13 15 15 16 13 10 9 18 22
246 227 183 207 173 205 332 36 356 299 240 318 279 111 11 4 356 13 13 3 358 356 358 356 358 358 1 356 357 356 357 358 353 1 7 10 8 7 8 11 14 16 13 11
71 208 295 300 316 338 97 24 34 96 217 169 311 83 352 348 332 4 13 3 2 0 354 354 350 348 349 353 351 352 350 355 351 354 3 3 359 3 2 8 8 11 19 17
1 293 342 296 286 133 104 28 111 63 11 114 163 151 25 330 338 1 15 360 352 347 345 342 343 341 339 345 341 337 338 340 342 347 356 356 357 358 359 3 6 10 9 9
277 195 74 273 125 135 327 6 46 130 71 312 302 244 358 336 326 316 333 353 339 335 330 335 336 329 329 336 332 327 324 323 334 335 334 344 351 352 357 350 0 7 360 358
233 149 209 245 288 247 127 25 54 97 75 25 0 334 319 304 296 285 164 331 336 333 327 330 323 318 329 329 324 318 314 316 318 322 333 336 340 337 338 339 340 344 335 340
203 213 287 124 160 318 338 321 52 100 274 309 292 310 299 315 322 347 163 340 332 308 304 304 306 311 321 320 324 324 319 326 332 336 335 338 331 327 332 331 330 327 310 318
83 36 126 80 149 236 236 268 11 119 292 268 244 279 289 335 15 258 309 324 308 300 296 298 307 309 317 316 322 324 321 324 338 340 337 336 330 323 322 311 314 300 308 310
357 6 72 14 137 296 250 280 7 89 264 296 259 299 299 300 223 286 306 301 294 273 289 299 301 297 294 298 306 312 312 308 332 322 322 315 315 315 299 300 318 320 313 306
94 64 359 59 53 309 233 351 175 189 289 237 275 264 280 288 295 296 299 300 306 304 308 303 301 299 298 300 312 306 308 323 322 319 318 310 307 304 310 308 306 303 302 307
14 160 265 179 234 230 264 219 242 132 167 290 219 259 257 287 291 296 299 304 307 307 306 305 296 301 301 299 293 309 315 315 311 314 310 306 307 304 302 301 297 291 296 283
15 5 234 17 349 291 303 332 24 190 227 258 239 259 275 277 290 292 302 306 307 307 309 312 312 306 305 311 315 304 306 313 307 300 294 291 294 299 321 315 303 304 298 304
230 338 335 275 322 330 359 241 246 301 275 266 270 253 269 294 304 301 305 304 304 305 309 314 314 308 310 312 305 301 304 302 295 295 295 294 296 297 294 288 287 280 266 259
356 253 68 259 215 189 264 283 282 289 305 308 310 312 316 307 307 308 305 308 312 302 325 314 310 309 307 306 303 303 301 300 296 295 297 295 297 294 284 284 288 287 291 291